Nissho Maru No.18 — JL6369 — position and weather

sailwx.info

Track history (hours):
 
Tides and Currents Weather Stations Pressure Air Temp Water Temp Dewpoint Dewpoint Depression Visibility Wind Speed Wind Dir Waves Ship Positions

Nissho Maru No.18

Last reported at 2014-Aug-27 12:25 UTC. Time now 2014-Aug-27 23:17 UTC.
Position N 34°32' E 135°18'.

Length 65 m; draft 4 m.

Type: Tanker. MMSI: 431500465.

Date/timePositionNaut miles runAvg speedWind from/ knotsBaromVisibWave heightAir tempDewpointWater temp
2014-Aug-27 12:25N 34°32' E 135°18'8 9.0
2014-Aug-27 11:33N 34°34' E 135°09'9 8.8
2014-Aug-27 10:33N 34°37' E 134°59'137 4.7
2014-Aug-26 05:27N 34°11' E 132°16'3 1.7
2014-Aug-26 03:32N 34°14' E 132°19'1110.9
2014-Aug-26 02:33N 34°20' E 132°29'3 2.6
2014-Aug-26 01:33N 34°22' E 132°31'1 1.4
2014-Aug-26 00:33N 34°21' E 132°30'2 2.4
2014-Aug-25 23:32N 34°19' E 132°29'0 0.0
2014-Aug-25 22:32N 34°19' E 132°29'0 0.0
2014-Aug-25 21:32N 34°19' E 132°29'0 0.0
2014-Aug-25 20:32N 34°19' E 132°29'0 0.0
2014-Aug-25 19:32N 34°19' E 132°29'0 0.0
2014-Aug-25 18:32N 34°19' E 132°29'0 0.0
2014-Aug-25 17:29N 34°19' E 132°29'0 0.0
2014-Aug-25 16:32N 34°19' E 132°29'0 0.0
2014-Aug-25 15:29N 34°19' E 132°29'0 0.0
2014-Aug-25 14:32N 34°19' E 132°29'0 0.0
2014-Aug-25 13:29N 34°19' E 132°29'0 0.0
2014-Aug-25 12:32N 34°19' E 132°29'1 1.1
2014-Aug-25 11:33N 34°18' E 132°28'1311.0
2014-Aug-25 10:24N 34°12' E 132°15'0 0.1
2014-Aug-25 09:32N 34°12' E 132°15'0 0.0
2014-Aug-25 08:33N 34°12' E 132°15'0 0.0
2014-Aug-25 07:33N 34°12' E 132°15'0 0.0
2014-Aug-25 06:33N 34°12' E 132°15'2 1.9
2014-Aug-25 05:16N 34°11' E 132°17'4 6.1
2014-Aug-25 04:33N 34°15' E 132°20'9 9.0
2014-Aug-25 03:33N 34°20' E 132°29'3 2.7
2014-Aug-25 02:33N 34°22' E 132°31'0 0.0
2014-Aug-25 01:33N 34°22' E 132°31'0 0.0
2014-Aug-25 00:33N 34°22' E 132°31'0 0.0
2014-Aug-24 23:33N 34°22' E 132°31'3 3.4
2014-Aug-24 22:33N 34°19' E 132°30'0 0.0
2014-Aug-24 21:33N 34°19' E 132°30'0 0.0
2014-Aug-24 20:33N 34°19' E 132°30'0 0.1
2014-Aug-24 19:33N 34°19' E 132°29'0 0.0
2014-Aug-24 18:33N 34°19' E 132°29'0 0.0
2014-Aug-24 17:33N 34°19' E 132°29'0 0.0
2014-Aug-24 16:33N 34°19' E 132°29'0 0.0
2014-Aug-24 15:33N 34°19' E 132°29'0 0.0
2014-Aug-24 14:33N 34°19' E 132°29'0 0.0
2014-Aug-24 13:33N 34°19' E 132°29'0 0.0
2014-Aug-24 12:33N 34°19' E 132°30'0 0.0
2014-Aug-24 11:33N 34°19' E 132°30'0 0.0
2014-Aug-24 10:33N 34°19' E 132°30'0 0.0
2014-Aug-24 09:33N 34°19' E 132°30'0 0.0
2014-Aug-24 08:33N 34°19' E 132°30'0 0.0
2014-Aug-24 07:33N 34°19' E 132°30'0 0.0
2014-Aug-24 06:33N 34°19' E 132°30'0 0.0
2014-Aug-24 05:33N 34°19' E 132°29'0 0.0
2014-Aug-24 04:33N 34°19' E 132°29'0 0.0
2014-Aug-24 03:33N 34°19' E 132°29'0 0.0
2014-Aug-24 02:33N 34°19' E 132°29'0 0.1
2014-Aug-24 01:33N 34°19' E 132°30'0 0.0
2014-Aug-24 00:33N 34°19' E 132°30'0 0.0
2014-Aug-23 23:30N 34°19' E 132°30'0 0.0
2014-Aug-23 22:33N 34°19' E 132°30'0 0.0
2014-Aug-23 21:33N 34°19' E 132°30'0 0.0
2014-Aug-23 20:33N 34°19' E 132°30'0 0.0
2014-Aug-23 19:33N 34°19' E 132°30'24 1.0
2014-Aug-22 18:21N 33°56' E 132°39'12211.2
2014-Aug-22 07:27N 34°37' E 134°58'1011.5
2014-Aug-22 06:33N 34°35' E 135°11'1111.2
2014-Aug-22 05:33N 34°33' E 135°24'1 1.4
2014-Aug-22 04:31N 34°33' E 135°26'0 0.0
2014-Aug-22 03:30N 34°33' E 135°26'0 0.0
2014-Aug-22 02:31N 34°33' E 135°26'0 0.0
2014-Aug-22 01:26N 34°33' E 135°26'0 0.0
2014-Aug-22 00:34N 34°33' E 135°26'6 5.6
2014-Aug-21 23:33N 34°32' E 135°19'0 0.2
2014-Aug-21 22:30N 34°32' E 135°19'0 0.0
2014-Aug-21 21:31N 34°32' E 135°19'0 0.1
2014-Aug-21 20:31N 34°32' E 135°18'0 0.0
2014-Aug-21 19:29N 34°32' E 135°18'0 0.0
2014-Aug-21 18:11N 34°32' E 135°18'0 0.0
2014-Aug-21 17:33N 34°32' E 135°18'0 0.0
2014-Aug-21 16:30N 34°32' E 135°18'0 0.0
2014-Aug-21 15:30N 34°32' E 135°18'0 0.0
2014-Aug-21 11:30N 34°32' E 135°18'7 7.4
2014-Aug-21 10:33N 34°27' E 135°12'1111.5
2014-Aug-21 09:34N 34°18' E 135°04'1110.7
2014-Aug-21 08:32N 34°07' E 135°07'0 0.0
2014-Aug-21 00:10N 34°07' E 135°08'1 0.1
2014-Aug-20 19:33N 34°07' E 135°08'0 0.0
2014-Aug-20 11:10N 34°07' E 135°08'5 9.0
2014-Aug-20 10:33N 34°08' E 135°01'  
2014-Aug-18 06:05N 33°56' E 132°40'  
Track history (hours):
 
Tides and Currents Weather Stations Pressure Air Temp Water Temp Dewpoint Dewpoint Depression Visibility Wind Speed Wind Dir Waves Ship Positions

Nissho Maru No.18

Last reported at 2014-Aug-27 12:25 UTC. Time now 2014-Aug-27 23:17 UTC.
Position N 34°32' E 135°18'.

Length 65 m; draft 4 m.

Type: Tanker. MMSI: 431500465.

Date/timePositionNaut miles runAvg speedWind from/ knotsBaromVisibWave heightAir tempDewpointWater temp
2014-Aug-27 12:25N 34°32' E 135°18'8 9.0
2014-Aug-27 11:33N 34°34' E 135°09'9 8.8
2014-Aug-27 10:33N 34°37' E 134°59'137 4.7
2014-Aug-26 05:27N 34°11' E 132°16'3 1.7
2014-Aug-26 03:32N 34°14' E 132°19'1110.9
2014-Aug-26 02:33N 34°20' E 132°29'3 2.6
2014-Aug-26 01:33N 34°22' E 132°31'1 1.4
2014-Aug-26 00:33N 34°21' E 132°30'2 2.4
2014-Aug-25 23:32N 34°19' E 132°29'0 0.0
2014-Aug-25 22:32N 34°19' E 132°29'0 0.0
2014-Aug-25 21:32N 34°19' E 132°29'0 0.0
2014-Aug-25 20:32N 34°19' E 132°29'0 0.0
2014-Aug-25 19:32N 34°19' E 132°29'0 0.0
2014-Aug-25 18:32N 34°19' E 132°29'0 0.0
2014-Aug-25 17:29N 34°19' E 132°29'0 0.0
2014-Aug-25 16:32N 34°19' E 132°29'0 0.0
2014-Aug-25 15:29N 34°19' E 132°29'0 0.0
2014-Aug-25 14:32N 34°19' E 132°29'0 0.0
2014-Aug-25 13:29N 34°19' E 132°29'0 0.0
2014-Aug-25 12:32N 34°19' E 132°29'1 1.1
2014-Aug-25 11:33N 34°18' E 132°28'1311.0
2014-Aug-25 10:24N 34°12' E 132°15'0 0.1
2014-Aug-25 09:32N 34°12' E 132°15'0 0.0
2014-Aug-25 08:33N 34°12' E 132°15'0 0.0
2014-Aug-25 07:33N 34°12' E 132°15'0 0.0
2014-Aug-25 06:33N 34°12' E 132°15'2 1.9
2014-Aug-25 05:16N 34°11' E 132°17'4 6.1
2014-Aug-25 04:33N 34°15' E 132°20'9 9.0
2014-Aug-25 03:33N 34°20' E 132°29'3 2.7
2014-Aug-25 02:33N 34°22' E 132°31'0 0.0
2014-Aug-25 01:33N 34°22' E 132°31'0 0.0
2014-Aug-25 00:33N 34°22' E 132°31'0 0.0
2014-Aug-24 23:33N 34°22' E 132°31'3 3.4
2014-Aug-24 22:33N 34°19' E 132°30'0 0.0
2014-Aug-24 21:33N 34°19' E 132°30'0 0.0
2014-Aug-24 20:33N 34°19' E 132°30'0 0.1
2014-Aug-24 19:33N 34°19' E 132°29'0 0.0
2014-Aug-24 18:33N 34°19' E 132°29'0 0.0
2014-Aug-24 17:33N 34°19' E 132°29'0 0.0
2014-Aug-24 16:33N 34°19' E 132°29'0 0.0
2014-Aug-24 15:33N 34°19' E 132°29'0 0.0
2014-Aug-24 14:33N 34°19' E 132°29'0 0.0
2014-Aug-24 13:33N 34°19' E 132°29'0 0.0
2014-Aug-24 12:33N 34°19' E 132°30'0 0.0
2014-Aug-24 11:33N 34°19' E 132°30'0 0.0
2014-Aug-24 10:33N 34°19' E 132°30'0 0.0
2014-Aug-24 09:33N 34°19' E 132°30'0 0.0
2014-Aug-24 08:33N 34°19' E 132°30'0 0.0
2014-Aug-24 07:33N 34°19' E 132°30'0 0.0
2014-Aug-24 06:33N 34°19' E 132°30'0 0.0
2014-Aug-24 05:33N 34°19' E 132°29'0 0.0
2014-Aug-24 04:33N 34°19' E 132°29'0 0.0
2014-Aug-24 03:33N 34°19' E 132°29'0 0.0
2014-Aug-24 02:33N 34°19' E 132°29'0 0.1
2014-Aug-24 01:33N 34°19' E 132°30'0 0.0
2014-Aug-24 00:33N 34°19' E 132°30'0 0.0
2014-Aug-23 23:30N 34°19' E 132°30'0 0.0
2014-Aug-23 22:33N 34°19' E 132°30'0 0.0
2014-Aug-23 21:33N 34°19' E 132°30'0 0.0
2014-Aug-23 20:33N 34°19' E 132°30'0 0.0
2014-Aug-23 19:33N 34°19' E 132°30'24 1.0
2014-Aug-22 18:21N 33°56' E 132°39'12211.2
2014-Aug-22 07:27N 34°37' E 134°58'1011.5
2014-Aug-22 06:33N 34°35' E 135°11'1111.2
2014-Aug-22 05:33N 34°33' E 135°24'1 1.4
2014-Aug-22 04:31N 34°33' E 135°26'0 0.0
2014-Aug-22 03:30N 34°33' E 135°26'0 0.0
2014-Aug-22 02:31N 34°33' E 135°26'0 0.0
2014-Aug-22 01:26N 34°33' E 135°26'0 0.0
2014-Aug-22 00:34N 34°33' E 135°26'6 5.6
2014-Aug-21 23:33N 34°32' E 135°19'0 0.2
2014-Aug-21 22:30N 34°32' E 135°19'0 0.0
2014-Aug-21 21:31N 34°32' E 135°19'0 0.1
2014-Aug-21 20:31N 34°32' E 135°18'0 0.0
2014-Aug-21 19:29N 34°32' E 135°18'0 0.0
2014-Aug-21 18:11N 34°32' E 135°18'0 0.0
2014-Aug-21 17:33N 34°32' E 135°18'0 0.0
2014-Aug-21 16:30N 34°32' E 135°18'0 0.0
2014-Aug-21 15:30N 34°32' E 135°18'0 0.0
2014-Aug-21 11:30N 34°32' E 135°18'7 7.4
2014-Aug-21 10:33N 34°27' E 135°12'1111.5
2014-Aug-21 09:34N 34°18' E 135°04'1110.7
2014-Aug-21 08:32N 34°07' E 135°07'0 0.0
2014-Aug-21 00:10N 34°07' E 135°08'1 0.1
2014-Aug-20 19:33N 34°07' E 135°08'0 0.0
2014-Aug-20 11:10N 34°07' E 135°08'5 9.0
2014-Aug-20 10:33N 34°08' E 135°01'  
2014-Aug-18 06:05N 33°56' E 132°40'  

Dump ship's entire track history